Location: Grust
(42.8833°N, 0.0333°W)
Time: 19:28:28
(UTC+00:00)

Milstar 3 - Pass Details

Date: 25 October 2020
Orbit: 1101 x 5144 km, 28.2° (Epoch: 25 September)

Event Time Altitude Azimuth Distance (km) Brightness Sun altitude
Rises 17:38:32 0° 234° (SW) 4,455 7.3 -7.4°
Reaches altitude 10° 17:42:26 10° 220° (SW) 3,176 6.0 -8.1°
Maximum altitude 17:47:42 22° 171° (S) 2,202 4.4 -9.1°
Drops below altitude 10° 17:52:43 10° 121° (ESE) 3,003 4.6 -10.0°
Enters shadow 17:54:02 - 115° (ESE) 3,398 4.8 -10.2°
